PDT,Max TemperatureF,Mean TemperatureF,Min TemperatureF,Max Dew PointF,MeanDew PointF,Min DewpointF,Max Humidity, Mean Humidity, Min Humidity, Max Sea Level PressureIn, Mean Sea Level PressureIn, Min Sea Level PressureIn, Max VisibilityMiles, Mean VisibilityMiles, Min VisibilityMiles, Max Wind SpeedMPH, Mean Wind SpeedMPH, Max Gust SpeedMPH,PrecipitationIn, CloudCover, Events, WindDirDegrees
2013-5-1,70,53,35,39,36,32,89,59,28,30.51,30.46,30.41,10,10,10,16,8,21,0.00,0,,348
2013-5-2,79,61,42,43,37,34,71,46,21,30.43,30.33,30.22,10,10,10,14,6,17,0.00,0,,353
2013-5-3,81,63,44,46,40,36,71,49,26,30.30,30.21,30.11,10,10,10,17,8,21,0.00,0,,355
2013-5-4,84,68,51,46,39,34,71,44,17,30.11,29.99,29.87,10,10,10,24,11,32,0.00,0,,13
2013-5-5,87,66,45,47,40,37,71,45,18,29.88,29.76,29.66,10,10,10,21,10,25,0.00,0,,33
2013-5-6,81,65,48,53,48,45,93,64,35,29.91,29.83,29.76,10,10,10,14,7,21,0.00,0,,198
2013-5-7,75,61,46,54,49,45,93,69,44,30.05,29.96,29.92,10,10,10,13,4,16,0.00,0,,254
2013-5-8,70,58,45,54,48,43,93,73,53,30.15,30.11,30.06,10,10,10,12,3,15,0.00,4,,351
2013-5-9,81,64,46,54,51,46,100,68,36,30.19,30.13,30.06,10,10,10,14,4,18,0.00,1,,25
2013-5-10,83,66,48,55,51,49,96,65,34,30.19,30.15,30.10,10,10,6,8,2,12,0.00,0,,267
2013-5-11,85,70,54,58,54,49,86,60,34,30.19,30.09,30.00,10,10,10,10,3,13,0.00,0,,248
2013-5-12,71,64,57,58,55,52,93,75,57,30.12,30.10,30.07,10,10,9,14,6,16,T,7,Rain,210
2013-5-13,68,63,57,56,51,43,93,73,52,30.23,30.13,30.06,10,10,10,24,12,33,T,6,Rain,200
2013-5-14,69,56,42,45,41,34,96,63,29,30.23,30.17,30.09,10,10,10,10,3,16,0.00,1,,311
2013-5-15,60,54,47,52,47,37,89,75,61,30.12,30.08,30.02,10,10,7,13,4,15,0.14,7,Rain,173
2013-5-16,61,57,53,54,53,47,100,86,72,30.01,29.97,29.96,10,8,2,12,6,15,0.18,8,Rain,170
2013-5-17,63,56,49,49,47,45,100,78,56,30.12,30.04,30.01,10,10,10,16,5,21,T,7,Rain,217
2013-5-18,60,55,49,53,49,46,93,83,72,30.28,30.18,30.11,10,10,7,16,5,20,0.05,8,Rain,167
2013-5-19,66,59,52,53,49,46,100,76,52,30.41,30.35,30.28,10,10,6,13,6,17,0.04,6,Rain,335
2013-5-20,73,58,42,50,45,40,100,69,37,30.35,30.15,29.94,10,10,10,9,4,14,0.00,2,,337
2013-5-21,54,50,46,48,45,39,93,82,71,30.01,29.93,29.86,10,8,4,21,8,28,0.73,7,Rain,217
2013-5-22,53,48,42,48,43,39,93,88,83,30.01,29.98,29.95,10,9,6,18,12,25,0.14,8,Rain,177
2013-5-23,57,52,46,49,46,43,93,83,72,30.03,30.01,30.00,10,10,6,18,11,23,0.07,8,Rain,174
2013-5-24,61,55,48,51,47,45,100,84,67,30.10,30.06,29.99,10,10,7,20,11,24,0.01,7,Rain,191
2013-5-25,68,57,46,53,47,44,100,73,45,30.08,30.02,29.93,10,10,7,13,4,17,0.00,6,Rain,218
2013-5-26,64,59,53,54,51,47,93,77,60,30.05,30.00,29.96,10,10,7,18,9,24,0.04,8,Rain,192
2013-5-27,65,58,51,58,52,47,96,87,78,29.98,29.82,29.75,10,9,4,24,11,32,0.59,7,Rain,185
2013-5-28,65,59,52,53,49,45,96,74,52,29.95,29.89,29.77,10,10,2,17,10,23,0.03,7,Rain,199
2013-5-29,65,58,51,54,50,44,100,80,60,30.09,29.81,29.65,10,9,2,24,13,30,0.19,7,Rain,194
2013-5-30,64,57,49,48,46,43,93,73,52,30.27,30.17,30.09,10,10,10,16,6,21,0.02,7,,237
2013-5-31,69,57,45,48,46,44,93,69,45,30.33,30.27,30.22,10,10,10,16,5,23,0.00,4,,346